Location: Harburg
(48.7667°N, 10.6667°E)
Time: 14:37:19
(UTC+00:00)

SPOT 3 Rocket - Pass Details

Date: 18 September 2020
Orbit: 780 x 794 km, 98.8° (Epoch: 23 October)

Event Time Altitude Azimuth Distance (km) Brightness Sun altitude
Exits shadow 20:03:39 35° 205° (SSW) 1,249 4.4 -25.6°
Maximum altitude 20:05:30 52° 260° (W) 971 4.2 -25.8°
Drops below altitude 10° 20:10:32 10° 336° (NNW) 2,345 6.8 -26.5°
Sets 20:12:56 0° 342° (NNW) 3,278 7.6 -26.8°
